S51FO-6 Weather Reports


time (UTC)temp
C
wind
direction
speed
KPH
gust
KPH
rain 1hr
cm
rain 24hr
cm
rain mn
cm
humidity
%
barometer
mb
20260506184946 8 0.0 0.0 0.41 3.45 3.45 87
20260506183944 8 0.0 0.0 0.41 3.38 3.38 88
20260506182944 8 0.0 0.0 0.41 3.30 3.30 87
20260506181944 8 0.0 0.0 0.38 3.20 3.20 88
20260506175944 8 0.0 0.0 0.28 3.10 3.05 87
20260506174944 8 0.0 0.0 0.23 3.07 3.02 87
20260506173944 8 0.0 0.0 0.20 3.05 2.95 87
20260506172944 8 0.0 0.0 0.10 2.95 2.87 87
20260506171944 8 0.0 0.0 0.05 2.92 2.82 87
20260506170944 8 0.0 0.0 0.05 2.95 2.82 87
20260506164944 8 0.0 0.0 0.00 2.95 2.77 87
20260506163944 8 0.0 0.0 0.00 2.95 2.74 87
20260506162944 8 0.0 0.0 0.00 3.00 2.74 87
20260506161944 8 0.0 0.0 0.00 3.00 2.74 87
20260506160944 8 0.0 0.0 0.00 3.00 2.74 87
20260506155944 8 0.0 0.0 0.08 3.02 2.74 87
20260506154944 8 0.0 0.0 0.10 3.02 2.74 87
20260506152944 8 0.0 0.0 0.13 3.05 2.74 87
20260506150944 8 0.0 0.0 0.23 3.02 2.74 87
20260506145944 8 0.0 0.0 0.28 2.95 2.67 87
20260506144944 8 0.0 0.0 0.33 2.95 2.64 87
20260506143944 8 0.0 0.0 0.41 2.95 2.64 87
20260506141944 8 0.0 0.0 0.48 2.87 2.57 87
20260506135944 8 0.0 0.0 0.43 2.72 2.39 87
20260506134944 8 0.0 0.0 0.41 2.64 2.31 87
20260506133944 8 0.0 0.0 0.41 2.54 2.24 87
20260506132944 8 0.0 0.0 0.41 2.49 2.16 87
20260506130944 8 0.0 0.0 0.36 2.34 2.01 87
20260506125944 8 0.0 0.0 0.36 2.26 1.93 87
20260506124944 8 0.0 0.0 0.38 2.21 1.88 87
20260506123944 8 0.0 0.0 0.38 2.13 1.80 87
20260506122947 8 0.0 0.0 0.41 2.08 1.75 87
20260506121944 8 0.0 0.0 0.41 2.03 1.70 87
20260506120944 8 0.0 0.0 0.41 1.96 1.63 87
20260506115953 8 0.0 0.0 0.43 1.91 1.57 87
20260506114944 7 0.0 0.0 0.41 1.83 1.50 87
20260506113944 7 0.0 0.0 0.43 1.75 1.42 87
20260506112944 7 0.0 0.0 0.41 1.68 1.35 87
20260506110944 7 0.0 0.0 0.41 1.52 1.19 87
20260506105944 7 0.0 0.0 0.36 1.45 1.12 87
20260506104946 7 0.0 0.0 0.33 1.40 1.07 87
20260506103951 7 0.0 0.0 0.28 1.32 0.99 87
20260506102950 7 0.0 0.0 0.20 1.24 0.91 87
20260506101944 7 0.0 0.0 0.15 1.19 0.86 87
20260506100944 7 0.0 0.0 0.10 1.12 0.79 87
20260506095944 7 0.0 0.0 0.05 1.09 0.76 87
20260506094944 7 0.0 0.0 0.03 1.07 0.71 87
20260506093944 7 0.0 0.0 0.05 1.04 0.69 87
20260506092944 7 0.0 0.0 0.10 1.04 0.69 87
20260506091944 7 0.0 0.0 0.15 1.07 0.69 87
20260506090944 7 0.0 0.0 0.20 1.09 0.69 87
20260506085944 7 0.0 0.0 0.28 1.12 0.69 87
20260506084944 6 0.0 0.0 0.33 1.09 0.69 87
20260506083944 6 0.0 0.0 0.36 1.04 0.64 87
20260506082944 6 0.0 0.0 0.33 0.99 0.58 87
20260506081944 6 0.0 0.0 0.30 0.94 0.53 87
20260506080944 7 0.0 0.0 0.23 0.89 0.48 87
20260506072944 7 0.0 0.0 0.08 0.64 0.23 87
20260506071944 7 0.0 0.0 0.08 0.64 0.23 87
20260506060944 7 0.0 0.0 0.03 0.53 0.13 87
20260506050946 8 0.0 0.0 0.03 0.51 0.10 87
20260506044949 8 0.0 0.0 0.00 0.48 0.08 87
20260506043949 8 0.0 0.0 0.00 0.48 0.08 87
20260506042946 8 0.0 0.0 0.00 0.46 0.05 87
20260506034946 7 0.0 0.0 0.00 0.46 0.05 87
20260506033946 7 0.0 0.0 0.00 0.46 0.05 87
20260506031946 7 0.0 0.0 0.00 0.46 0.05 87
20260506030946 7 0.0 0.0 0.00 0.46 0.05 87
20260506025951 7 0.0 0.0 0.00 0.46 0.05 87
20260506023946 7 0.0 0.0 0.00 0.43 0.03 87
20260506022950 7 0.0 0.0 0.00 0.43 0.03 87
20260506020946 7 0.0 0.0 0.00 0.43 0.03 87
20260506015950 7 0.0 0.0 0.00 0.43 0.03 87
20260506014946 7 0.0 0.0 0.00 0.43 0.03 87
20260506013949 7 0.0 0.0 0.00 0.43 0.03 87
20260506012956 7 0.0 0.0 0.00 0.43 0.03 87
20260506011946 7 0.0 0.0 0.00 0.43 0.03 87
20260506010947 7 0.0 0.0 0.00 0.43 0.03 87
20260506005948 7 0.0 0.0 0.03 0.43 0.03 87
20260506004949 7 0.0 0.0 0.03 0.43 0.03 87
20260506003946 7 0.0 0.0 0.03 0.43 0.03 87
20260506001946 7 0.0 0.0 0.03 0.43 0.03 87
20260506000946 7 0.0 0.0 0.03 0.43 0.03 87
20260505235955 7 0.0 0.0 0.00 0.41 0.00 87
20260505233946 7 0.0 0.0 0.00 0.41 0.41 87
20260505232948 7 0.0 0.0 0.00 0.41 0.41 87
20260505231946 7 0.0 0.0 0.00 0.41 0.41 87
20260505224949 6 0.0 0.0 0.00 0.41 0.41 87
20260505222951 7 0.0 0.0 0.00 0.41 0.41 87
20260505221957 7 0.0 0.0 0.00 0.41 0.41 87
20260505220946 7 0.0 0.0 0.00 0.41 0.41 87
20260505215954 7 0.0 0.0 0.00 0.41 0.41 87
20260505214946 7 0.0 0.0 0.00 0.41 0.41 87
20260505213950 7 0.0 0.0 0.00 0.41 0.41 87
20260505212949 7 0.0 0.0 0.00 0.41 0.41 87
20260505211948 7 0.0 0.0 0.00 0.41 0.41 87
20260505210948 6 0.0 0.0 0.00 0.41 0.41 87
20260505205949 6 0.0 0.0 0.00 0.41 0.41 86
20260505204946 6 0.0 0.0 0.00 0.41 0.41 86
20260505203947 6 0.0 0.0 0.00 0.41 0.41 86
20260505202954 6 0.0 0.0 0.00 0.41 0.41 86
20260505201947 6 0.0 0.0 0.00 0.41 0.41 86
20260505200946 6 0.0 0.0 0.00 0.41 0.41 86
20260505195950 6 0.0 0.0 0.00 0.41 0.41 86
20260505194952 6 0.0 0.0 0.00 0.41 0.41 86
20260505193946 6 0.0 0.0 0.00 0.41 0.41 86
20260505192946 6 0.0 0.0 0.00 0.41 0.41 86
20260505190946 6 0.0 0.0 0.00 0.41 0.41 86
20260505185951 6 0.0 0.0 0.03 0.41 0.41 86